Regional Weather Roundup
Issued by NWS Upton, NY

Current Version | Previous Version | Graphics & Text | Print | Product List | Glossary Off
Versions: 1 2 3 4 5 6 7 8 9 10 11 12 13 14 15 16 17 18 19 20 21 22 23 24 25 26 27 28 29 30 31 32 33 34 35 36 37 38 39 40 41 42 43 44 45 46 47 48 49 50

000
ASUS41 KOKX 222205
RWROKX

Regional Weather Roundup
National Weather Service New York NY
500 PM EST THU FEB 22 2018

Note: "FAIR" indicates few or no clouds below 12,000 feet with no
significant weather and/or obstructions to visibility.

NYZ071-072-176-178-NJZ106-104-222300-
New York City Metro Area

CITY           SKY/WX    TMP DP  RH WIND       PRES   REMARKS
Central Park   LGT RAIN  38  35  89 NE12G17   30.64R FOG     WCI  30
Bronx Bot Gard   N/A     36  34  93 NE1       30.66R
Bronx Lehman C NOT AVBL
LaGuardia Arpt RAIN      38  33  82 NE13      30.63R WCI  30
Queens College NOT AVBL
Kennedy Intl   LGT RAIN  38  35  89 NE10      30.64R FOG     WCI  31
Breezy Point   NOT AVBL
Brooklyn Coll  NOT AVBL
Staten Island  NOT AVBL
Newark/Liberty LGT RAIN  38  36  92 N15       30.64R FOG     WCI  29
Teterboro      LGT RAIN  38  35  89 NE12      30.63R FOG     WCI  30
$$

NYZ177-179-078>081-222300-
Long Island New York

CITY           SKY/WX    TMP DP  RH WIND       PRES   REMARKS
Jones Beach    NOT AVBL
Wantagh        NOT AVBL
Hempstead        N/A     37  34  87 NE3       30.66R
Matinecock Pt  NOT AVBL
Farmingdale    CLOUDY    38  33  82 NE6       30.62R WCI  33
MacArthur/ISP  LGT RAIN  38  34  85 NE9       30.61R FOG     WCI  31
Shirley        LGT RAIN  39  35  86 VRB6      30.61R WCI  35
Mt Sinai Harb  NOT AVBL
Westhampton    LGT RAIN  40  32  73 NE10      30.63R WCI  33
East Hampton   RAIN      40  30  67 NE7       30.61R WCI  35
Southold       NOT AVBL
Montauk        NOT AVBL
$$

NYZ052-065-067-222300-
Hudson Valley

CITY           SKY/WX    TMP DP  RH WIND       PRES   REMARKS
White Plains   LGT RAIN  36  34  92 N9        30.61R FOG     WCI  29
Larchmont Harb NOT AVBL
Croton On Huds NOT AVBL
Somers         NOT AVBL
Brewster       NOT AVBL
Newburgh       LGT SNOW  34  34 100 NE7       30.65R FOG     WCI  28
Montgomery     LGT SNOW  33  31  92 NE9       30.64R FOG     WCI  25
Otisville      NOT AVBL
Warwick        NOT AVBL
Suffern        NOT AVBL
Poughkeepsie   LGT SNOW  33  30  88 N8        30.67R FOG     WCI  26
Albany         FLURRIES  30  25  81 NE7       30.69S WCI  23
$$

NJZ001-105-106-008-010-013-015-019>022-104-222300-
New Jersey

CITY           SKY/WX    TMP DP  RH WIND       PRES   REMARKS
Newark/Liberty LGT RAIN  38  36  92 N15       30.64R FOG     WCI  29
Teterboro      LGT RAIN  38  35  89 NE12      30.63R FOG     WCI  30
Caldwell       LGT RAIN  36  35  96 NE8       30.64R FOG     WCI  30
Somerville     LGT RAIN  38  37  97 NE6       30.61R FOG     WCI  33
Linden         HVY RAIN  39  36  87 NE9       30.64R WCI  33
Perth Amboy    NOT AVBL
Sussex         LGT RAIN  36  34  92 NE10      30.64R FOG     WCI  28
Andover          N/A     36  35  96 VRB5      30.62R WCI  32
Trenton        RAIN      40  37  89 NE10      30.61R FOG     WCI  33
Millville      LGT RAIN  42  40  92 N15       30.55R FOG
Atlantic City  CLOUDY    42  41  96 NE13G21   30.55  FOG
Wrightstown    LGT RAIN  39  37  93 NE8       30.58  FOG     WCI  34
Toms River     LGT RAIN  39  36  89 NE15G22   30.61R WCI  31
Belmar         LGT RAIN  39  37  92 N14G20    30.62  FOG     WCI  31
$$

PAZ047>061-062-071-222300-
Eastern Pennsylvania

CITY           SKY/WX    TMP DP  RH WIND       PRES   REMARKS
Philadelphia   LGT RAIN  40  38  93 NE14      30.60R FOG     WCI  32
Allentown      LGT RAIN  38  34  85 NE9       30.62R FOG     WCI  31
Scranton       CLOUDY    38  36  92 NE8       30.59R WCI  32
$$

CTZ002-004>006-009-010-012-RIZ004-006-007-MAZ004-011-015-222300-
Southern New England

 In CT

CITY           SKY/WX    TMP DP  RH WIND       PRES   REMARKS
Bradley Intl   LGT SNOW  33  32  96 N7        30.67R VSB 1   WCI  27
Hartford       LGT SNOW  33  32  96 N9        30.67R VSB 3/4 WCI  25
Danbury        LGT RAIN  35  33  92 NE8       30.64R FOG     WCI  29
Wtrbury/Oxford LGT SNOW  32  30  92 NE10      30.62R FOG     WCI  24
Norwalk Harbor NOT AVBL
Bridgeport     LGT RAIN  37  33  85 N13       30.63R FOG     WCI  29
Meriden        LGT SNOW  33  31  92 N9        30.66R FOG     WCI  25
New Haven      LGT RAIN  36  32  85 N17       30.63R FOG     WCI  26
Chester        RAIN      36  34  93 N7        30.62R WCI  30
Groton         LGT RAIN  39  35  86 NE9       30.64R FOG     WCI  33
Willimantic    LGT SNOW  35  32  88 N5        30.66R FOG     WCI  31

 In RI

CITY           SKY/WX    TMP DP  RH WIND       PRES   REMARKS
Providence     LGT SNOW  35  33  92 N10       30.66R FOG     WCI  27
Block Island   LGT RAIN  38  31  76 NE9       30.62R WCI  31
Westerly       LGT RAIN  38  35  89 N7        30.64R FOG     WCI  33

In MA

CITY           SKY/WX    TMP DP  RH WIND       PRES   REMARKS
Boston         LGT SNOW  32  30  92 N6        30.68  VSB 3/4 WCI  26
Worcester      LGT SNOW  31  29  92 NE5       30.62R VSB 3/4 WCI  26
Westfield      LGT SNOW  32  32 100 NE9       30.67R FOG     WCI  24
Provincetown   LGT SNOW  33  29  85 N16       30.68R FOG     WCI  23
Nantucket      CLOUDY    39  33  79 N21G26    30.60R WCI  29
$$

ANZ330-335-338-340-345-350-353-355-222300-
Coastal Marine Observations


STATION/POSITION TIME  SKY/WX   TEMP    WIND        PRES    VSBY  WAVE
                                AIR SEA DIR/SP/G                  HT/PER
                 (UTC)          (F)     (DEG/KT/KT) (MB)    (MI)  (FT/S)
NY Harb Entrance 2140            40 41   40/ 14/ 17 1036.7
20 S Fire Island 2050            42 42   50/ 23/ 27 1034.0          7/ 7
15 E Barnegat Li 2130               42                N/A           8/ 7
Hudson Canyon    2050            44 46   70/ 23/ 29 1031.0          8/ 7
Kings Point      2148            36 38   70/  5/ 11 1038.3
Execution Rocks  NOT AVBL
Western LI Sound NOT AVBL
Central LI Sound 2130            38     360/ 14/ 17   N/A           1
Robbins Reef     2148            38      10/ 11/ 13 1037.5
$$


>>>>>>>>>>>>>>>>>>>>>>>>>>>> KEY <<<<<<<<<<<<<<<<<<<<<<<<<<<
>                                                          <
>     SKY/WX - Sky Condition/Present Weather               <
>     TMP    - Temperature in Fahrenheit                   <
>     DP     - Dew Point in Fahrenheit                     <
>     RH     - Relative Humidity in Percent                <
>     WIND   - Direction (from) and Speed in MPH           <
>     PRES   - Mean Sea Level Pressure (inches of Hg)      <
>     WCI    - Wind Chill Index                            <
>     VSB    - Visibility in Miles                         <
>     HX     - Heat Index                                  <
>     TC     - Temperature in Celsius                      <
>     VRB    - Varibale Wind Direction                     <
>                                                          <
>>>>>>>>>>>>>>>>>>>>>>>>>>>> KEY <<<<<<<<<<<<<<<<<<<<<<<<<<<



USA.gov is the U.S. government's official web portal to all federal, state and local government web resources and services.